This is the latest recevied weather packets stored in our database for station/object N6GPM. If no packets are shown the sender has not sent any weather packets the latest 10 day(s).
| Time | Temp. | Humidity | Pressure | Rain* | Wind** | Luminosity | Snow |
|---|---|---|---|---|---|---|---|
| 1788316550 | 23.89° C | 34% | 1017.7 hPa | 0 mm | - | 0 W/m² | - |
| 1788316245 | 23.89° C | 33% | 1017.5 hPa | 0 mm | - | 0 W/m² | - |
| 1788315944 | 24.44° C | 33% | 1017.7 hPa | 0 mm | - | 1 W/m² | - |
| 1788315635 | 24.44° C | 32% | 1017.8 hPa | 0 mm | - | 3 W/m² | - |
| 1788315331 | 24.44° C | 31% | 1017.7 hPa | 0 mm | - | 5 W/m² | - |
| 1788315031 | 25° C | 31% | 1017.7 hPa | 0 mm | - | 10 W/m² | - |
| 1788314726 | 25° C | 31% | 1017.4 hPa | 0 mm | - | 13 W/m² | - |
| 1788314422 | 25.56° C | 30% | 1017.7 hPa | 0 mm | - | 17 W/m² | - |
| 1788314118 | 25.56° C | 29% | 1017.5 hPa | 0 mm | - | 23 W/m² | - |
| 1788313813 | 25.56° C | 27% | 1017.7 hPa | 0 mm | - | 29 W/m² | - |
| 1788313510 | 26.11° C | 27% | 1017.6 hPa | 0 mm | - | 34 W/m² | - |
| 1788313205 | 26.11° C | 27% | 1017.5 hPa | 0 mm | - | 40 W/m² | - |
| 1788312899 | 26.11° C | 27% | 1017.6 hPa | 0 mm | - | 47 W/m² | - |
| 1788312594 | 26.67° C | 25% | 1017.6 hPa | 0 mm | - | 58 W/m² | - |
| 1788312294 | 26.67° C | 24% | 1017.9 hPa | 0 mm | - | 65 W/m² | - |
| 1788311985 | 27.22° C | 23% | 1017.7 hPa | 0 mm | - | 76 W/m² | - |
| 1788311681 | 27.22° C | 21% | 1017.8 hPa | 0 mm | - | 93 W/m² | - |
| 1788311380 | 27.78° C | 18% | 1017.5 hPa | 0 mm | - | 103 W/m² | - |
| 1788311075 | 27.78° C | 18% | 1017.7 hPa | 0 mm | - | 117 W/m² | - |
| 1788310774 | 27.78° C | 18% | 1017.5 hPa | 0 mm | - | 131 W/m² | - |
| 1788310473 | 27.78° C | 20% | 1017.6 hPa | 0 mm | - | 148 W/m² | - |
| 1788310170 | 27.78° C | 20% | 1017.9 hPa | 0 mm | - | 163 W/m² | - |
| 1788309869 | 27.78° C | 19% | 1017.8 hPa | 0 mm | - | 184 W/m² | - |
| 1788309564 | 28.33° C | 19% | 1017.9 hPa | 0 mm | - | 204 W/m² | - |
| 1788309259 | 27.78° C | 18% | 1017.9 hPa | 0 mm | - | 225 W/m² | - |
* Rain latest hour (hover to see other rain measurements)
** Current wind speed in m/s (hover to see current wind gust speed)